QPF
0.00 0.00 0.00 0.00 0.00 0.00 0.00 0.00 0.00 0.00 0.00 0.00 0.00 0.00 0.00 0.00 0.00 0.00 0.00 0.00 0.00 0.00 0.00 0.00 0.00 0.00 0.00 0.00 0.00 0.00 0.00 0.00 0.00 0.00 0.00 0.01 0.01 0.01 0.01 0.01 0.02 0.02 0.02
0.00 0.00 0.00 0.00 0.00 0.00 0.00 0.00 0.00 0.00 0.00 0.00 0.00 0.00 0.00 0.00 0.00 0.00 0.00 0.00 0.00 0.00 0.00 0.00 0.00 0.00 0.00 0.00 0.00 0.00 0.00 0.00 0.00 0.00 0.00 0.00 0.00 0.01 0.01 0.01 0.01 0.01 0.01
0.00 0.00 0.00 0.00 0.00 0.00 0.00 0.00 0.00 0.00 0.00 0.00 0.00 0.00 0.00 0.00 0.00 0.00 0.00 0.00 0.00 0.00 0.00 0.00 0.00 0.00 0.00 0.00 0.00 0.00 0.00 0.00 0.00 0.00 0.00 0.00 0.00 0.00 0.01 0.01 0.01 0.01 0.01
0.00 0.00 0.00 0.00 0.00 0.00 0.00 0.00 0.00 0.00 0.00 0.00 0.00 0.00 0.00 0.00 0.00 0.00 0.00 0.00 0.00 0.00 0.00 0.00 0.00 0.00 0.00 0.00 0.00 0.00 0.00 0.00 0.00 0.00 0.00 0.00 0.00 0.00 0.00 0.01 0.01 0.01 0.01
0.00 0.00 0.00 0.00 0.00 0.00 0.00 0.00 0.00 0.00 0.00 0.00 0.00 0.00 0.00 0.00 0.00 0.00 0.00 0.00 0.00 0.00 0.00 0.00 0.00 0.00 0.00 0.00 0.00 0.00 0.00 0.00 0.00 0.00 0.00 0.00 0.00 0.00 0.01 0.01 0.01 0.01 0.01
0.00 0.00 0.00 0.00 0.00 0.00 0.00 0.00 0.00 0.00 0.00 0.00 0.00 0.00 0.00 0.00 0.00 0.00 0.00 0.00 0.00 0.00 0.00 0.00 0.00 0.00 0.00 0.00 0.00 0.00 0.00 0.00 0.00 0.00 0.00 0.00 0.00 0.00 0.01 0.01 0.01 0.01 0.01
0.00 0.00 0.00 0.00 0.00 0.00 0.00 0.00 0.00 0.00 0.00 0.00 0.00 0.00 0.00 0.00 0.00 0.00 0.00 0.00 0.00 0.00 0.00 0.00 0.00 0.00 0.00 0.00 0.00 0.00 0.00 0.00 0.00 0.00 0.00 0.00 0.00 0.01 0.01 0.01 0.01 0.01 0.01
0.00 0.00 0.00 0.00 0.00 0.00 0.00 0.00 0.00 0.00 0.00 0.00 0.00 0.00 0.00 0.00 0.00 0.00 0.00 0.00 0.00 0.00 0.00 0.00 0.00 0.00 0.00 0.00 0.00 0.00 0.00 0.00 0.00 0.00 0.00 0.00 0.00 0.01 0.01 0.01 0.01 0.02 0.02
0.00 0.00 0.00 0.00 0.00 0.00 0.00 0.00 0.00 0.00 0.00 0.00 0.00 0.00 0.00 0.00 0.00 0.00 0.00 0.00 0.00 0.00 0.00 0.00 0.00 0.00 0.00 0.00 0.00 0.00 0.00 0.00 0.00 0.00 0.00 0.00 0.00 0.01 0.01 0.01 0.02 0.02 0.02
0.00 0.00 0.00 0.00 0.00 0.00 0.00 0.00 0.00 0.00 0.00 0.00 0.00 0.00 0.00 0.00 0.00 0.00 0.00 0.00 0.00 0.00 0.00 0.00 0.00 0.00 0.00 0.00 0.00 0.00 0.00 0.00 0.00 0.00 0.00 0.00 0.00 0.01 0.01 0.01 0.01 0.01 0.02
0.00 0.00 0.00 0.00 0.00 0.00 0.00 0.00 0.00 0.00 0.00 0.00 0.00 0.00 0.00 0.00 0.00 0.00 0.00 0.00 0.00 0.00 0.00 0.00 0.00 0.00 0.00 0.00 0.00 0.00 0.00 0.00 0.00 0.00 0.00 0.00 0.00 0.00 0.01 0.01 0.01 0.01 0.01
0.00 0.00 0.00 0.00 0.00 0.00 0.00 0.00 0.00 0.00 0.00 0.00 0.00 0.00 0.00 0.00 0.00 0.00 0.00 0.00 0.00 0.00 0.00 0.00 0.00 0.00 0.00 0.00 0.00 0.00 0.00 0.00 0.00 0.00 0.00 0.00 0.00 0.00 0.01 0.01 0.01 0.01 0.01
0.00 0.00 0.00 0.00 0.00 0.00 0.00 0.00 0.00 0.00 0.00 0.00 0.00 0.00 0.00 0.00 0.00 0.00 0.00 0.00 0.00 0.00 0.00 0.00 0.00 0.00 0.00 0.00 0.00 0.00 0.00 0.00 0.00 0.00 0.00 0.00 0.00 0.00 0.01 0.01 0.01 0.01 0.01
0.00 0.00 0.00 0.00 0.00 0.00 0.00 0.00 0.00 0.00 0.00 0.00 0.00 0.00 0.00 0.00 0.00 0.00 0.00 0.00 0.00 0.00 0.00 0.00 0.00 0.00 0.00 0.00 0.00 0.00 0.00 0.00 0.00 0.00 0.00 0.00 0.00 0.00 0.01 0.01 0.01 0.01 0.01
0.00 0.00 0.00 0.00 0.00 0.00 0.00 0.00 0.00 0.00 0.00 0.00 0.00 0.00 0.00 0.00 0.00 0.00 0.00 0.00 0.00 0.00 0.00 0.00 0.00 0.00 0.00 0.00 0.00 0.00 0.00 0.00 0.00 0.00 0.00 0.00 0.00 0.01 0.01 0.01 0.01 0.02 0.02
0.00 0.00 0.00 0.00 0.00 0.00 0.00 0.00 0.00 0.00 0.00 0.00 0.00 0.00 0.00 0.00 0.00 0.00 0.00 0.00 0.00 0.00 0.00 0.00 0.00 0.00 0.00 0.00 0.00 0.00 0.00 0.00 0.00 0.00 0.00 0.00 0.00 0.01 0.01 0.01 0.02 0.02 0.02
0.00 0.00 0.00 0.00 0.00 0.00 0.00 0.00 0.00 0.00 0.00 0.00 0.00 0.00 0.00 0.00 0.00 0.00 0.00 0.00 0.00 0.00 0.00 0.00 0.00 0.00 0.00 0.00 0.00 0.00 0.00 0.00 0.00 0.00 0.00 0.00 0.01 0.01 0.01 0.01 0.01 0.02 0.02
0.00 0.00 0.00 0.00 0.00 0.00 0.00 0.00 0.00 0.00 0.00 0.00 0.00 0.00 0.00 0.00 0.00 0.00 0.00 0.00 0.00 0.00 0.00 0.00 0.00 0.00 0.00 0.00 0.00 0.00 0.00 0.00 0.00 0.00 0.00 0.00 0.01 0.01 0.01 0.01 0.02 0.02 0.02
0.00 0.00 0.00 0.00 0.00 0.00 0.00 0.00 0.00 0.00 0.00 0.00 0.00 0.00 0.00 0.00 0.00 0.00 0.00 0.00 0.00 0.00 0.00 0.00 0.00 0.00 0.00 0.00 0.00 0.00 0.00 0.00 0.00 0.00 0.00 0.00 0.00 0.00 0.01 0.01 0.01 0.01 0.01
0.00 0.00 0.00 0.00 0.00 0.00 0.00 0.00 0.00 0.00 0.00 0.00 0.00 0.00 0.00 0.00 0.00 0.00 0.00 0.00 0.00 0.00 0.00 0.00 0.00 0.00 0.00 0.00 0.00 0.00 0.00 0.00 0.00 0.00 0.00 0.00 0.00 0.00 0.00 0.00 0.00 0.00 0.00
0.00 0.00 0.00 0.00 0.00 0.00 0.00 0.00 0.00 0.00 0.00 0.00 0.00 0.00 0.00 0.00 0.00 0.00 0.00 0.00 0.00 0.00 0.00 0.00 0.00 0.00 0.00 0.00 0.00 0.00 0.00 0.00 0.00 0.00 0.00 0.00 0.00 0.00 0.00 0.00 0.00 0.00 0.01
0.00 0.00 0.00 0.00 0.00 0.00 0.00 0.00 0.00 0.00 0.00 0.00 0.00 0.00 0.00 0.00 0.00 0.00 0.00 0.00 0.00 0.00 0.00 0.00 0.00 0.00 0.00 0.00 0.00 0.00 0.00 0.00 0.01 0.00 0.00 0.00 0.00 0.00 0.00 0.00 0.00 0.00 0.01
0.00 0.00 0.00 0.00 0.00 0.00 0.00 0.00 0.00 0.00 0.00 0.00 0.00 0.00 0.00 0.00 0.00 0.00 0.00 0.00 0.00 0.00 0.00 0.00 0.00 0.00 0.00 0.00 0.00 0.01 0.01 0.01 0.01 0.01 0.02 0.02 0.00 0.00 0.00 0.00 0.00 0.00 0.01
0.00 0.00 0.00 0.00 0.00 0.00 0.00 0.00 0.00 0.00 0.00 0.00 0.00 0.00 0.00 0.00 0.00 0.00 0.00 0.00 0.00 0.00 0.00 0.00 0.00 0.00 0.00 0.01 0.01 0.02 0.03 0.04 0.03 0.02 0.02 0.02 0.00 0.00 0.00 0.00 0.00 0.00 0.01
0.00 0.00 0.00 0.00 0.00 0.00 0.00 0.00 0.00 0.00 0.00 0.00 0.00 0.00 0.00 0.00 0.00 0.00 0.00 0.00 0.00 0.00 0.00 0.00 0.01 0.01 0.01 0.02 0.02 0.03 0.04 0.04 0.03 0.01 0.00 0.01 0.00 0.00 0.00 0.00 0.00 0.00 0.00
0.00 0.00 0.00 0.00 0.00 0.00 0.00 0.00 0.00 0.00 0.00 0.00 0.00 0.00 0.00 0.00 0.00 0.00 0.00 0.00 0.00 0.00 0.00 0.00 0.01 0.01 0.01 0.01 0.01 0.02 0.02 0.03 0.02 0.02 0.00 0.01 0.01 0.01 0.01 0.00 0.00 0.00 0.00
MSLP
1020.57 1020.74 1020.82 1020.87 1020.90 1020.96 1021.03 1021.14 1021.24 1021.33 1021.38 1021.38 1021.33 1021.25 1021.17 1021.11 1021.08 1021.09 1021.13 1021.19 1021.24 1021.26 1021.24 1021.17 1021.07 1020.93 1020.78 1020.63 1020.47 1020.32 1020.17 1020.01 1019.86 1019.70 1019.55 1019.40 1019.24 1019.09 1018.92 1018.72 1018.49 1018.22 1017.94
1020.22 1020.39 1020.50 1020.58 1020.66 1020.76 1020.88 1021.03 1021.18 1021.31 1021.39 1021.43 1021.42 1021.37 1021.32 1021.28 1021.25 1021.27 1021.30 1021.35 1021.39 1021.41 1021.40 1021.35 1021.28 1021.17 1021.05 1020.91 1020.77 1020.62 1020.46 1020.28 1020.11 1019.93 1019.76 1019.59 1019.43 1019.26 1019.08 1018.88 1018.65 1018.38 1018.09
1019.74 1019.94 1020.10 1020.24 1020.39 1020.56 1020.75 1020.96 1021.16 1021.34 1021.47 1021.55 1021.59 1021.59 1021.57 1021.55 1021.53 1021.53 1021.55 1021.57 1021.58 1021.58 1021.55 1021.51 1021.45 1021.37 1021.28 1021.17 1021.04 1020.90 1020.73 1020.55 1020.34 1020.14 1019.93 1019.74 1019.55 1019.37 1019.19 1018.99 1018.77 1018.52 1018.23
1019.20 1019.45 1019.67 1019.90 1020.15 1020.41 1020.68 1020.96 1021.22 1021.44 1021.62 1021.75 1021.83 1021.87 1021.89 1021.89 1021.88 1021.87 1021.86 1021.84 1021.81 1021.77 1021.72 1021.67 1021.61 1021.54 1021.47 1021.40 1021.29 1021.16 1020.99 1020.79 1020.56 1020.32 1020.07 1019.84 1019.63 1019.43 1019.24 1019.05 1018.84 1018.61 1018.36
1018.66 1018.96 1019.28 1019.61 1019.95 1020.31 1020.67 1021.01 1021.33 1021.60 1021.81 1021.98 1022.10 1022.18 1022.23 1022.26 1022.26 1022.25 1022.21 1022.16 1022.08 1022.00 1021.91 1021.84 1021.77 1021.72 1021.67 1021.61 1021.53 1021.41 1021.24 1021.02 1020.76 1020.48 1020.19 1019.91 1019.66 1019.44 1019.25 1019.06 1018.88 1018.67 1018.44
1018.17 1018.54 1018.94 1019.37 1019.81 1020.26 1020.69 1021.09 1021.45 1021.75 1021.99 1022.19 1022.34 1022.46 1022.54 1022.60 1022.63 1022.62 1022.57 1022.49 1022.39 1022.26 1022.14 1022.04 1021.96 1021.91 1021.87 1021.82 1021.76 1021.64 1021.47 1021.24 1020.95 1020.63 1020.30 1019.98 1019.69 1019.44 1019.23 1019.05 1018.88 1018.70 1018.49
1017.76 1018.19 1018.66 1019.17 1019.70 1020.22 1020.71 1021.16 1021.53 1021.85 1022.11 1022.33 1022.51 1022.66 1022.78 1022.88 1022.94 1022.95 1022.91 1022.83 1022.70 1022.55 1022.41 1022.28 1022.18 1022.12 1022.08 1022.04 1021.97 1021.86 1021.69 1021.44 1021.13 1020.77 1020.41 1020.05 1019.73 1019.46 1019.23 1019.05 1018.88 1018.72 1018.52
1017.43 1017.90 1018.43 1019.00 1019.59 1020.16 1020.68 1021.15 1021.54 1021.86 1022.13 1022.36 1022.57 1022.76 1022.93 1023.07 1023.18 1023.23 1023.21 1023.14 1023.01 1022.86 1022.69 1022.55 1022.43 1022.35 1022.29 1022.24 1022.17 1022.05 1021.87 1021.61 1021.28 1020.91 1020.52 1020.14 1019.80 1019.51 1019.27 1019.07 1018.90 1018.73 1018.54
1017.16 1017.65 1018.22 1018.82 1019.44 1020.03 1020.57 1021.04 1021.44 1021.76 1022.04 1022.29 1022.52 1022.76 1022.98 1023.18 1023.34 1023.44 1023.47 1023.42 1023.32 1023.16 1022.99 1022.83 1022.69 1022.58 1022.50 1022.42 1022.33 1022.20 1022.00 1021.74 1021.41 1021.04 1020.64 1020.25 1019.90 1019.59 1019.33 1019.12 1018.94 1018.76 1018.55
1016.90 1017.41 1017.99 1018.61 1019.23 1019.83 1020.37 1020.84 1021.24 1021.57 1021.86 1022.14 1022.41 1022.69 1022.96 1023.22 1023.44 1023.60 1023.68 1023.67 1023.59 1023.45 1023.28 1023.10 1022.94 1022.79 1022.68 1022.57 1022.45 1022.29 1022.09 1021.82 1021.50 1021.13 1020.75 1020.37 1020.01 1019.69 1019.42 1019.19 1018.98 1018.77 1018.55
1016.62 1017.15 1017.74 1018.35 1018.97 1019.56 1020.10 1020.57 1020.97 1021.32 1021.64 1021.95 1022.26 1022.59 1022.91 1023.23 1023.51 1023.72 1023.84 1023.88 1023.83 1023.71 1023.54 1023.35 1023.16 1022.98 1022.82 1022.67 1022.51 1022.33 1022.11 1021.84 1021.53 1021.19 1020.82 1020.45 1020.11 1019.78 1019.49 1019.23 1018.99 1018.75 1018.49
1016.31 1016.86 1017.45 1018.06 1018.67 1019.25 1019.79 1020.26 1020.68 1021.05 1021.40 1021.75 1022.11 1022.48 1022.86 1023.22 1023.54 1023.79 1023.96 1024.04 1024.01 1023.91 1023.75 1023.55 1023.34 1023.13 1022.93 1022.73 1022.53 1022.32 1022.08 1021.81 1021.51 1021.19 1020.84 1020.50 1020.16 1019.83 1019.52 1019.22 1018.94 1018.66 1018.36
1015.96 1016.53 1017.13 1017.74 1018.35 1018.92 1019.46 1019.94 1020.39 1020.79 1021.19 1021.58 1021.98 1022.39 1022.80 1023.20 1023.55 1023.83 1024.03 1024.13 1024.13 1024.05 1023.90 1023.70 1023.48 1023.24 1023.00 1022.76 1022.52 1022.27 1022.01 1021.73 1021.44 1021.13 1020.81 1020.47 1020.14 1019.80 1019.47 1019.13 1018.80 1018.48 1018.15
1015.57 1016.18 1016.80 1017.41 1018.01 1018.59 1019.13 1019.63 1020.10 1020.55 1020.98 1021.41 1021.85 1022.29 1022.72 1023.13 1023.50 1023.79 1024.01 1024.13 1024.16 1024.10 1023.97 1023.78 1023.55 1023.29 1023.02 1022.75 1022.47 1022.19 1021.91 1021.62 1021.32 1021.02 1020.71 1020.38 1020.04 1019.68 1019.32 1018.95 1018.57 1018.20 1017.83
1015.17 1015.81 1016.45 1017.07 1017.67 1018.25 1018.80 1019.32 1019.82 1020.30 1020.77 1021.23 1021.69 1022.15 1022.59 1023.00 1023.36 1023.66 1023.88 1024.02 1024.07 1024.04 1023.93 1023.76 1023.54 1023.29 1023.00 1022.70 1022.40 1022.09 1021.78 1021.48 1021.18 1020.87 1020.55 1020.22 1019.87 1019.49 1019.09 1018.68 1018.26 1017.84 1017.44
1014.76 1015.43 1016.08 1016.71 1017.31 1017.89 1018.44 1018.98 1019.50 1020.01 1020.50 1020.99 1021.47 1021.93 1022.36 1022.76 1023.11 1023.40 1023.62 1023.77 1023.84 1023.84 1023.77 1023.64 1023.44 1023.20 1022.92 1022.61 1022.29 1021.96 1021.63 1021.31 1020.99 1020.68 1020.35 1020.01 1019.64 1019.24 1018.81 1018.35 1017.89 1017.43 1016.99
1014.35 1015.04 1015.69 1016.31 1016.91 1017.49 1018.04 1018.59 1019.12 1019.64 1020.16 1020.65 1021.13 1021.59 1022.00 1022.38 1022.71 1022.99 1023.21 1023.37 1023.46 1023.50 1023.47 1023.37 1023.21 1023.00 1022.74 1022.43 1022.11 1021.78 1021.44 1021.11 1020.78 1020.46 1020.12 1019.76 1019.38 1018.95 1018.49 1018.00 1017.50 1017.01 1016.54
1013.93 1014.62 1015.26 1015.88 1016.46 1017.03 1017.58 1018.13 1018.67 1019.20 1019.72 1020.21 1020.69 1021.12 1021.52 1021.88 1022.18 1022.44 1022.65 1022.82 1022.94 1023.00 1023.01 1022.96 1022.84 1022.66 1022.43 1022.15 1021.84 1021.52 1021.19 1020.86 1020.53 1020.20 1019.86 1019.50 1019.10 1018.65 1018.17 1017.65 1017.13 1016.61 1016.11
1013.50 1014.17 1014.80 1015.40 1015.97 1016.52 1017.07 1017.61 1018.14 1018.67 1019.19 1019.69 1020.15 1020.57 1020.94 1021.26 1021.54 1021.78 1021.98 1022.14 1022.27 1022.36 1022.40 1022.38 1022.31 1022.17 1021.97 1021.73 1021.45 1021.15 1020.84 1020.53 1020.22 1019.90 1019.57 1019.21 1018.81 1018.36 1017.86 1017.33 1016.79 1016.24 1015.72
1013.06 1013.71 1014.32 1014.89 1015.45 1015.99 1016.52 1017.06 1017.59 1018.11 1018.62 1019.10 1019.55 1019.95 1020.29 1020.59 1020.84 1021.05 1021.23 1021.37 1021.50 1021.59 1021.64 1021.65 1021.61 1021.51 1021.35 1021.15 1020.91 1020.65 1020.38 1020.10 1019.83 1019.54 1019.23 1018.89 1018.50 1018.06 1017.57 1017.03 1016.48 1015.92 1015.38
1012.62 1013.24 1013.83 1014.39 1014.93 1015.46 1015.99 1016.51 1017.03 1017.55 1018.04 1018.51 1018.93 1019.31 1019.63 1019.89 1020.10 1020.28 1020.43 1020.55 1020.65 1020.73 1020.78 1020.79 1020.77 1020.69 1020.57 1020.41 1020.22 1020.01 1019.79 1019.57 1019.34 1019.10 1018.84 1018.53 1018.16 1017.74 1017.27 1016.74 1016.19 1015.62 1015.07
1012.20 1012.80 1013.37 1013.92 1014.46 1014.98 1015.49 1016.01 1016.52 1017.01 1017.49 1017.94 1018.34 1018.68 1018.97 1019.20 1019.38 1019.51 1019.61 1019.69 1019.76 1019.81 1019.84 1019.84 1019.82 1019.76 1019.67 1019.55 1019.41 1019.26 1019.10 1018.94 1018.77 1018.58 1018.37 1018.10 1017.78 1017.39 1016.94 1016.43 1015.88 1015.32 1014.76
1011.82 1012.41 1012.98 1013.52 1014.05 1014.56 1015.06 1015.56 1016.04 1016.52 1016.97 1017.39 1017.76 1018.08 1018.33 1018.52 1018.66 1018.75 1018.81 1018.84 1018.86 1018.87 1018.86 1018.84 1018.81 1018.76 1018.69 1018.60 1018.51 1018.41 1018.32 1018.22 1018.12 1017.99 1017.83 1017.61 1017.33 1016.98 1016.56 1016.08 1015.55 1015.00 1014.44
1011.50 1012.08 1012.65 1013.19 1013.71 1014.20 1014.68 1015.15 1015.61 1016.05 1016.47 1016.86 1017.20 1017.48 1017.70 1017.86 1017.96 1018.01 1018.03 1018.01 1017.98 1017.95 1017.90 1017.86 1017.80 1017.75 1017.70 1017.64 1017.59 1017.54 1017.50 1017.46 1017.41 1017.34 1017.23 1017.06 1016.82 1016.51 1016.13 1015.67 1015.17 1014.64 1014.10
1011.23 1011.83 1012.39 1012.91 1013.41 1013.88 1014.33 1014.76 1015.18 1015.58 1015.96 1016.31 1016.61 1016.87 1017.06 1017.20 1017.27 1017.29 1017.27 1017.22 1017.15 1017.08 1017.00 1016.93 1016.86 1016.80 1016.76 1016.72 1016.70 1016.69 1016.70 1016.70 1016.70 1016.67 1016.60 1016.47 1016.27 1016.00 1015.65 1015.24 1014.77 1014.27 1013.76
1011.03 1011.61 1012.16 1012.67 1013.14 1013.56 1013.97 1014.35 1014.71 1015.06 1015.40 1015.71 1015.98 1016.21 1016.39 1016.51 1016.57 1016.58 1016.54 1016.47 1016.38 1016.28 1016.18 1016.09 1016.02 1015.96 1015.92 1015.90 1015.90 1015.92 1015.95 1015.99 1016.01 1016.01 1015.97 1015.87 1015.70 1015.46 1015.16 1014.78 1014.36 1013.90 1013.42
Thickness
5662 5659 5656 5653 5650 5647 5644 5642 5639 5637 5634 5632 5629 5627 5625 5622 5620 5618 5615 5613 5611 5608 5606 5605 5603 5601 5599 5598 5596 5594 5593 5592 5591 5591 5590 5590 5590 5590 5591 5592 5593 5593 5595
5659 5655 5651 5648 5645 5642 5639 5636 5633 5631 5628 5625 5622 5620 5618 5615 5613 5611 5608 5605 5602 5600 5597 5595 5593 5591 5589 5587 5586 5584 5583 5582 5581 5581 5580 5580 5580 5580 5581 5581 5582 5583 5584
5655 5651 5647 5643 5640 5637 5634 5630 5627 5624 5621 5618 5615 5613 5610 5608 5605 5603 5600 5597 5594 5591 5588 5586 5583 5581 5579 5577 5576 5574 5573 5572 5571 5570 5570 5570 5570 5570 5571 5571 5572 5573 5574
5652 5647 5643 5639 5635 5632 5628 5624 5620 5616 5613 5609 5607 5605 5602 5600 5597 5594 5592 5588 5585 5581 5578 5576 5573 5570 5569 5567 5565 5564 5563 5562 5561 5560 5560 5560 5559 5560 5560 5561 5562 5563 5564
5647 5643 5638 5633 5629 5625 5621 5617 5612 5609 5604 5601 5599 5597 5594 5591 5589 5586 5583 5579 5576 5572 5569 5565 5562 5560 5558 5556 5555 5553 5552 5551 5551 5550 5550 5549 5549 5549 5550 5550 5551 5552 5554
5642 5637 5632 5628 5623 5619 5614 5610 5605 5600 5596 5592 5590 5587 5584 5582 5579 5576 5573 5569 5566 5562 5558 5555 5552 5549 5547 5545 5543 5542 5542 5541 5540 5539 5539 5538 5538 5538 5539 5540 5541 5542 5543
5637 5632 5627 5622 5617 5612 5608 5603 5598 5593 5587 5584 5580 5575 5573 5572 5569 5565 5562 5559 5555 5552 5548 5545 5542 5539 5537 5534 5533 5532 5530 5530 5529 5529 5528 5528 5527 5527 5528 5529 5529 5530 5532
5633 5627 5622 5616 5611 5606 5600 5596 5591 5585 5579 5575 5570 5564 5560 5559 5557 5555 5551 5548 5544 5541 5537 5534 5531 5529 5526 5524 5522 5521 5519 5518 5518 5518 5517 5517 5516 5516 5517 5517 5518 5519 5520
5628 5622 5616 5611 5605 5600 5594 5589 5584 5578 5571 5566 5562 5556 5550 5548 5543 5543 5540 5537 5534 5530 5527 5524 5521 5519 5517 5514 5512 5510 5509 5508 5507 5507 5506 5506 5505 5505 5505 5506 5506 5507 5507
5622 5616 5611 5605 5600 5594 5588 5583 5577 5572 5566 5559 5553 5549 5544 5539 5533 5531 5529 5527 5524 5521 5518 5515 5512 5510 5507 5505 5502 5500 5498 5497 5496 5495 5495 5494 5494 5494 5494 5494 5494 5494 5495
5616 5611 5605 5600 5593 5588 5582 5576 5570 5565 5560 5553 5547 5541 5536 5530 5525 5519 5517 5515 5513 5511 5508 5505 5503 5500 5497 5494 5491 5489 5487 5485 5484 5484 5483 5482 5482 5481 5481 5481 5481 5481 5482
5608 5603 5599 5593 5588 5582 5576 5570 5564 5559 5553 5547 5541 5535 5529 5523 5517 5510 5505 5503 5501 5501 5499 5496 5493 5490 5487 5484 5480 5478 5476 5474 5473 5472 5470 5469 5468 5468 5467 5467 5467 5467 5468
5601 5597 5593 5587 5581 5576 5570 5564 5558 5552 5546 5540 5534 5528 5523 5518 5512 5505 5498 5494 5490 5490 5489 5487 5484 5480 5477 5473 5470 5467 5465 5463 5462 5460 5458 5457 5455 5454 5453 5453 5452 5452 5452
5599 5593 5587 5581 5575 5569 5563 5557 5551 5545 5539 5533 5527 5522 5516 5510 5505 5499 5491 5484 5480 5478 5476 5476 5474 5470 5467 5463 5459 5457 5454 5451 5449 5448 5446 5444 5442 5440 5438 5437 5436 5435 5434
5593 5587 5581 5575 5568 5562 5556 5550 5544 5537 5531 5526 5520 5514 5508 5503 5497 5491 5485 5477 5469 5466 5467 5466 5462 5461 5456 5452 5449 5445 5442 5439 5436 5434 5431 5429 5427 5424 5422 5420 5418 5417 5416
5588 5581 5574 5568 5562 5556 5550 5543 5537 5531 5524 5518 5512 5506 5500 5495 5489 5483 5476 5470 5463 5457 5455 5456 5453 5449 5446 5441 5437 5433 5430 5426 5422 5419 5416 5413 5410 5407 5404 5402 5399 5397 5395
5582 5575 5569 5562 5555 5549 5543 5536 5530 5523 5517 5511 5505 5498 5493 5487 5480 5474 5468 5461 5455 5448 5446 5450 5444 5440 5435 5430 5426 5421 5416 5412 5407 5403 5400 5397 5393 5389 5385 5382 5379 5376 5374
5577 5570 5564 5556 5550 5543 5536 5530 5523 5517 5510 5503 5497 5491 5485 5479 5472 5466 5459 5453 5447 5441 5435 5436 5435 5428 5422 5417 5413 5407 5403 5398 5392 5387 5383 5379 5374 5370 5366 5363 5359 5357 5354
5570 5564 5557 5550 5543 5537 5530 5523 5517 5510 5503 5497 5490 5483 5477 5470 5464 5457 5451 5444 5438 5433 5426 5422 5422 5415 5409 5403 5398 5394 5388 5382 5376 5370 5366 5360 5356 5351 5347 5344 5341 5338 5335
5564 5557 5551 5544 5537 5530 5523 5516 5509 5502 5495 5489 5483 5476 5469 5462 5456 5449 5442 5436 5429 5422 5416 5410 5407 5402 5395 5389 5382 5377 5374 5367 5361 5354 5348 5343 5338 5334 5329 5326 5323 5320 5318
5558 5551 5543 5536 5529 5523 5516 5509 5502 5495 5487 5480 5474 5468 5461 5455 5448 5441 5434 5427 5419 5412 5404 5398 5393 5388 5382 5373 5366 5361 5357 5353 5347 5339 5334 5328 5322 5317 5312 5308 5305 5303 5302
5549 5542 5536 5529 5522 5516 5511 5504 5496 5488 5480 5473 5466 5459 5453 5446 5439 5433 5427 5419 5411 5401 5392 5385 5380 5372 5367 5359 5353 5346 5339 5336 5334 5327 5318 5315 5307 5303 5298 5295 5292 5290 5289
5541 5534 5527 5521 5514 5508 5503 5496 5489 5480 5473 5465 5458 5451 5445 5438 5431 5423 5416 5409 5399 5390 5382 5373 5366 5359 5352 5346 5339 5333 5325 5319 5316 5310 5303 5304 5296 5291 5287 5283 5281 5279 5278
5533 5526 5519 5513 5506 5500 5495 5488 5481 5472 5465 5457 5450 5443 5435 5428 5420 5412 5405 5396 5387 5378 5369 5361 5353 5347 5340 5333 5326 5320 5314 5309 5305 5297 5289 5287 5286 5281 5278 5273 5270 5269 5268
5524 5517 5511 5504 5497 5491 5486 5480 5472 5463 5455 5448 5441 5433 5425 5417 5411 5404 5395 5385 5377 5367 5358 5350 5342 5335 5328 5321 5314 5307 5300 5294 5292 5287 5278 5273 5273 5271 5269 5265 5263 5261 5260
5516 5509 5502 5495 5488 5482 5477 5470 5463 5454 5446 5439 5431 5423 5416 5408 5401 5392 5382 5372 5364 5356 5347 5339 5330 5322 5314 5306 5299 5291 5284 5279 5276 5273 5269 5262 5260 5257 5259 5258 5255 5253 5253